Location: Aldenham
(51.6667°N, 0.3500°W)
Time: 18:47:31
(UTC+00:00)

A-11 Canister half - Pass Details

Date: 23 February 2026
Orbit: 1512 x 1687 km, 47.2° (Epoch: 8 March)

Event Time Altitude Azimuth Distance (km) Brightness Sun altitude
Rises 01:05:45 0° 284° (WNW) 4,918 - -46.9°
Reaches altitude 10° 01:09:05 10° 279° (W) 3,911 - -46.8°
Maximum altitude 01:18:23 46° 210° (SSW) 2,077 - -46.2°
Drops below altitude 10° 01:27:21 10° 142° (SE) 3,775 - -45.7°
Sets 01:30:31 0° 136° (SE) 4,734 - -45.4°
